Location: *
(50.9167°S, 179.4000°W)
Time: 20:35:31
(UTC+00:00)

ADEOS II - Pass Details

Date: 03 March 2024
Orbit: 797 x 798 km, 98.7° (Epoch: 16 April)

Event Time Altitude Azimuth Distance (km) Brightness Sun altitude
Exits shadow 13:59:38 31° 237° (WSW) 1,400 3.3 -27.9°
Drops below altitude 10° 14:02:54 10° 208° (SSW) 2,409 4.9 -27.6°
Sets 14:05:25 0° 200° (SSW) 3,347 5.8 -27.4°
